User: anonymous   Login
Location: Viterbo
(42.4170°N, 12.1000°E)
Time: 23:46:19
(UTC+01:00)
Language:

PCSat - Orbit

View from above orbital plane
View from above orbital plane
View from above satellite
View from above satellite

Ground track
Ground track

The orbit data is extracted from the following two-line orbital elements,

1 26931U 01043C   20027.45575990 -.00000048  00000-0  13508-4 0  9998
2 26931  67.0512 148.8332 0006639 262.9796  97.0550 14.30565386956836
Epoch (UTC): 27 January 2020 10:56:17
Eccentricity: 0.0006639
inclination: 67.0512°
perigee height: 785 km
apogee height: 794 km
right ascension of ascending node: 148.8332°
argument of perigee: 262.9796°
revolutions per day: 14.30565386
mean anomaly at epoch: 97.0550°
orbit number at epoch: 95683

The dashed part of the orbit path shows where the satellite is in the earth's shadow,  

DLR